Index of /20260503/WXO-DD/model_rdps/10km/18/008
Name Last modified Size Description
Parent Directory -
20260503T18Z_MSC_RDPS_AbsoluteVorticity_IsbL-0250_RLatLon0.09_PT008H.grib2 2026-05-03 20:42 624K
20260503T18Z_MSC_RDPS_AbsoluteVorticity_IsbL-0500_RLatLon0.09_PT008H.grib2 2026-05-03 20:42 572K
20260503T18Z_MSC_RDPS_AbsoluteVorticity_IsbL-0700_RLatLon0.09_PT008H.grib2 2026-05-03 20:42 623K
20260503T18Z_MSC_RDPS_AbsoluteVorticity_IsbL-0850_RLatLon0.09_PT008H.grib2 2026-05-03 20:42 782K
20260503T18Z_MSC_RDPS_AirTemp_AGL-120m_RLatLon0.09_PT008H.grib2 2026-05-03 20:42 382K
20260503T18Z_MSC_RDPS_AirTemp_AGL-2m_RLatLon0.09_PT008H.grib2 2026-05-03 20:42 620K
20260503T18Z_MSC_RDPS_AirTemp_AGL-40m_RLatLon0.09_PT008H.grib2 2026-05-03 20:42 395K
20260503T18Z_MSC_RDPS_AirTemp_AGL-80m_RLatLon0.09_PT008H.grib2 2026-05-03 20:42 386K
20260503T18Z_MSC_RDPS_AirTemp_IsbL-0001_RLatLon0.09_PT008H.grib2 2026-05-03 20:42 253K
20260503T18Z_MSC_RDPS_AirTemp_IsbL-0005_RLatLon0.09_PT008H.grib2 2026-05-03 20:42 278K
20260503T18Z_MSC_RDPS_AirTemp_IsbL-0010_RLatLon0.09_PT008H.grib2 2026-05-03 20:42 287K
20260503T18Z_MSC_RDPS_AirTemp_IsbL-0020_RLatLon0.09_PT008H.grib2 2026-05-03 20:42 302K
20260503T18Z_MSC_RDPS_AirTemp_IsbL-0030_RLatLon0.09_PT008H.grib2 2026-05-03 20:42 326K
20260503T18Z_MSC_RDPS_AirTemp_IsbL-0050_RLatLon0.09_PT008H.grib2 2026-05-03 20:42 308K
20260503T18Z_MSC_RDPS_AirTemp_IsbL-0100_RLatLon0.09_PT008H.grib2 2026-05-03 20:42 420K
20260503T18Z_MSC_RDPS_AirTemp_IsbL-0150_RLatLon0.09_PT008H.grib2 2026-05-03 20:42 417K
20260503T18Z_MSC_RDPS_AirTemp_IsbL-0175_RLatLon0.09_PT008H.grib2 2026-05-03 20:42 408K
20260503T18Z_MSC_RDPS_AirTemp_IsbL-0200_RLatLon0.09_PT008H.grib2 2026-05-03 20:42 414K
20260503T18Z_MSC_RDPS_AirTemp_IsbL-0225_RLatLon0.09_PT008H.grib2 2026-05-03 20:42 421K
20260503T18Z_MSC_RDPS_AirTemp_IsbL-0250_RLatLon0.09_PT008H.grib2 2026-05-03 20:42 427K
20260503T18Z_MSC_RDPS_AirTemp_IsbL-0275_RLatLon0.09_PT008H.grib2 2026-05-03 20:42 405K
20260503T18Z_MSC_RDPS_AirTemp_IsbL-0300_RLatLon0.09_PT008H.grib2 2026-05-03 20:42 409K
20260503T18Z_MSC_RDPS_AirTemp_IsbL-0350_RLatLon0.09_PT008H.grib2 2026-05-03 20:42 426K
20260503T18Z_MSC_RDPS_AirTemp_IsbL-0400_RLatLon0.09_PT008H.grib2 2026-05-03 20:42 431K
20260503T18Z_MSC_RDPS_AirTemp_IsbL-0450_RLatLon0.09_PT008H.grib2 2026-05-03 20:42 405K
20260503T18Z_MSC_RDPS_AirTemp_IsbL-0500_RLatLon0.09_PT008H.grib2 2026-05-03 20:42 416K
20260503T18Z_MSC_RDPS_AirTemp_IsbL-0550_RLatLon0.09_PT008H.grib2 2026-05-03 20:42 432K
20260503T18Z_MSC_RDPS_AirTemp_IsbL-0600_RLatLon0.09_PT008H.grib2 2026-05-03 20:42 447K
20260503T18Z_MSC_RDPS_AirTemp_IsbL-0650_RLatLon0.09_PT008H.grib2 2026-05-03 20:42 462K
20260503T18Z_MSC_RDPS_AirTemp_IsbL-0700_RLatLon0.09_PT008H.grib2 2026-05-03 20:42 377K
20260503T18Z_MSC_RDPS_AirTemp_IsbL-0750_RLatLon0.09_PT008H.grib2 2026-05-03 20:42 406K
20260503T18Z_MSC_RDPS_AirTemp_IsbL-0800_RLatLon0.09_PT008H.grib2 2026-05-03 20:42 449K
20260503T18Z_MSC_RDPS_AirTemp_IsbL-0850_RLatLon0.09_PT008H.grib2 2026-05-03 20:42 495K
20260503T18Z_MSC_RDPS_AirTemp_IsbL-0875_RLatLon0.09_PT008H.grib2 2026-05-03 20:42 510K
20260503T18Z_MSC_RDPS_AirTemp_IsbL-0900_RLatLon0.09_PT008H.grib2 2026-05-03 20:42 516K
20260503T18Z_MSC_RDPS_AirTemp_IsbL-0925_RLatLon0.09_PT008H.grib2 2026-05-03 20:42 510K
20260503T18Z_MSC_RDPS_AirTemp_IsbL-0950_RLatLon0.09_PT008H.grib2 2026-05-03 20:42 513K
20260503T18Z_MSC_RDPS_AirTemp_IsbL-0970_RLatLon0.09_PT008H.grib2 2026-05-03 20:42 507K
20260503T18Z_MSC_RDPS_AirTemp_IsbL-0985_RLatLon0.09_PT008H.grib2 2026-05-03 20:42 498K
20260503T18Z_MSC_RDPS_AirTemp_IsbL-1000_RLatLon0.09_PT008H.grib2 2026-05-03 20:42 484K
20260503T18Z_MSC_RDPS_AirTemp_IsbL-1015_RLatLon0.09_PT008H.grib2 2026-05-03 20:42 482K
20260503T18Z_MSC_RDPS_Albedo_Sfc_RLatLon0.09_PT008H.grib2 2026-05-03 20:42 160K
20260503T18Z_MSC_RDPS_CAPE_Sfc_RLatLon0.09_PT008H.grib2 2026-05-03 20:42 1.7M
20260503T18Z_MSC_RDPS_CIN_Sfc_RLatLon0.09_PT008H.grib2 2026-05-03 20:42 1.2M
20260503T18Z_MSC_RDPS_CloudWater_EAtm_RLatLon0.09_PT008H.grib2 2026-05-03 20:42 220K
20260503T18Z_MSC_RDPS_ConvectivePrecip-Accum_Sfc_RLatLon0.09_PT008H.grib2 2026-05-03 20:42 607K
20260503T18Z_MSC_RDPS_DewPointDepression_AGL-2m_RLatLon0.09_PT008H.grib2 2026-05-03 20:42 404K
20260503T18Z_MSC_RDPS_DewPointDepression_IsbL-0001_RLatLon0.09_PT008H.grib2 2026-05-03 20:42 193
20260503T18Z_MSC_RDPS_DewPointDepression_IsbL-0005_RLatLon0.09_PT008H.grib2 2026-05-03 20:42 193
20260503T18Z_MSC_RDPS_DewPointDepression_IsbL-0010_RLatLon0.09_PT008H.grib2 2026-05-03 20:42 193
20260503T18Z_MSC_RDPS_DewPointDepression_IsbL-0020_RLatLon0.09_PT008H.grib2 2026-05-03 20:42 193
20260503T18Z_MSC_RDPS_DewPointDepression_IsbL-0030_RLatLon0.09_PT008H.grib2 2026-05-03 20:42 193
20260503T18Z_MSC_RDPS_DewPointDepression_IsbL-0050_RLatLon0.09_PT008H.grib2 2026-05-03 20:42 74K
20260503T18Z_MSC_RDPS_DewPointDepression_IsbL-0100_RLatLon0.09_PT008H.grib2 2026-05-03 20:42 118K
20260503T18Z_MSC_RDPS_DewPointDepression_IsbL-0150_RLatLon0.09_PT008H.grib2 2026-05-03 20:42 146K
20260503T18Z_MSC_RDPS_DewPointDepression_IsbL-0175_RLatLon0.09_PT008H.grib2 2026-05-03 20:42 183K
20260503T18Z_MSC_RDPS_DewPointDepression_IsbL-0200_RLatLon0.09_PT008H.grib2 2026-05-03 20:42 227K
20260503T18Z_MSC_RDPS_DewPointDepression_IsbL-0225_RLatLon0.09_PT008H.grib2 2026-05-03 20:42 270K
20260503T18Z_MSC_RDPS_DewPointDepression_IsbL-0250_RLatLon0.09_PT008H.grib2 2026-05-03 20:42 308K
20260503T18Z_MSC_RDPS_DewPointDepression_IsbL-0275_RLatLon0.09_PT008H.grib2 2026-05-03 20:42 313K
20260503T18Z_MSC_RDPS_DewPointDepression_IsbL-0300_RLatLon0.09_PT008H.grib2 2026-05-03 20:42 328K
20260503T18Z_MSC_RDPS_DewPointDepression_IsbL-0350_RLatLon0.09_PT008H.grib2 2026-05-03 20:42 336K
20260503T18Z_MSC_RDPS_DewPointDepression_IsbL-0400_RLatLon0.09_PT008H.grib2 2026-05-03 20:42 343K
20260503T18Z_MSC_RDPS_DewPointDepression_IsbL-0450_RLatLon0.09_PT008H.grib2 2026-05-03 20:42 344K
20260503T18Z_MSC_RDPS_DewPointDepression_IsbL-0500_RLatLon0.09_PT008H.grib2 2026-05-03 20:42 349K
20260503T18Z_MSC_RDPS_DewPointDepression_IsbL-0550_RLatLon0.09_PT008H.grib2 2026-05-03 20:42 358K
20260503T18Z_MSC_RDPS_DewPointDepression_IsbL-0600_RLatLon0.09_PT008H.grib2 2026-05-03 20:42 369K
20260503T18Z_MSC_RDPS_DewPointDepression_IsbL-0650_RLatLon0.09_PT008H.grib2 2026-05-03 20:42 376K
20260503T18Z_MSC_RDPS_DewPointDepression_IsbL-0700_RLatLon0.09_PT008H.grib2 2026-05-03 20:42 387K
20260503T18Z_MSC_RDPS_DewPointDepression_IsbL-0750_RLatLon0.09_PT008H.grib2 2026-05-03 20:42 406K
20260503T18Z_MSC_RDPS_DewPointDepression_IsbL-0800_RLatLon0.09_PT008H.grib2 2026-05-03 20:42 440K
20260503T18Z_MSC_RDPS_DewPointDepression_IsbL-0850_RLatLon0.09_PT008H.grib2 2026-05-03 20:42 470K
20260503T18Z_MSC_RDPS_DewPointDepression_IsbL-0875_RLatLon0.09_PT008H.grib2 2026-05-03 20:42 468K
20260503T18Z_MSC_RDPS_DewPointDepression_IsbL-0900_RLatLon0.09_PT008H.grib2 2026-05-03 20:42 458K
20260503T18Z_MSC_RDPS_DewPointDepression_IsbL-0925_RLatLon0.09_PT008H.grib2 2026-05-03 20:42 447K
20260503T18Z_MSC_RDPS_DewPointDepression_IsbL-0950_RLatLon0.09_PT008H.grib2 2026-05-03 20:42 440K
20260503T18Z_MSC_RDPS_DewPointDepression_IsbL-0970_RLatLon0.09_PT008H.grib2 2026-05-03 20:42 432K
20260503T18Z_MSC_RDPS_DewPointDepression_IsbL-0985_RLatLon0.09_PT008H.grib2 2026-05-03 20:42 426K
20260503T18Z_MSC_RDPS_DewPointDepression_IsbL-1000_RLatLon0.09_PT008H.grib2 2026-05-03 20:42 420K
20260503T18Z_MSC_RDPS_DewPointDepression_IsbL-1015_RLatLon0.09_PT008H.grib2 2026-05-03 20:42 412K
20260503T18Z_MSC_RDPS_DewPoint_AGL-2m_RLatLon0.09_PT008H.grib2 2026-05-03 20:42 304K
20260503T18Z_MSC_RDPS_DownwardLongwaveRadiationFlux-Accum_Sfc_RLatLon0.09_PT008H.grib2 2026-05-03 20:42 416K
20260503T18Z_MSC_RDPS_DownwardShortwaveRadiationFlux-Accum_NTAtm_RLatLon0.09_PT008H.grib2 2026-05-03 20:42 119K
20260503T18Z_MSC_RDPS_DownwardShortwaveRadiationFlux-Accum_Sfc_RLatLon0.09_PT008H.grib2 2026-05-03 20:42 487K
20260503T18Z_MSC_RDPS_FreezingRain-Accum1h_Sfc_RLatLon0.09_PT008H.grib2 2026-05-03 20:42 21K
20260503T18Z_MSC_RDPS_FreezingRain-Accum_Sfc_RLatLon0.09_PT008H.grib2 2026-05-03 20:42 33K
20260503T18Z_MSC_RDPS_GeopotentialHeight_IsbL-0001_RLatLon0.09_PT008H.grib2 2026-05-03 20:42 235K
20260503T18Z_MSC_RDPS_GeopotentialHeight_IsbL-0005_RLatLon0.09_PT008H.grib2 2026-05-03 20:42 331K
20260503T18Z_MSC_RDPS_GeopotentialHeight_IsbL-0010_RLatLon0.09_PT008H.grib2 2026-05-03 20:42 298K
20260503T18Z_MSC_RDPS_GeopotentialHeight_IsbL-0020_RLatLon0.09_PT008H.grib2 2026-05-03 20:42 393K
20260503T18Z_MSC_RDPS_GeopotentialHeight_IsbL-0030_RLatLon0.09_PT008H.grib2 2026-05-03 20:42 395K
20260503T18Z_MSC_RDPS_GeopotentialHeight_IsbL-0050_RLatLon0.09_PT008H.grib2 2026-05-03 20:42 305K
20260503T18Z_MSC_RDPS_GeopotentialHeight_IsbL-0100_RLatLon0.09_PT008H.grib2 2026-05-03 20:42 285K
20260503T18Z_MSC_RDPS_GeopotentialHeight_IsbL-0150_RLatLon0.09_PT008H.grib2 2026-05-03 20:42 229K
20260503T18Z_MSC_RDPS_GeopotentialHeight_IsbL-0175_RLatLon0.09_PT008H.grib2 2026-05-03 20:42 232K
20260503T18Z_MSC_RDPS_GeopotentialHeight_IsbL-0200_RLatLon0.09_PT008H.grib2 2026-05-03 20:42 264K
20260503T18Z_MSC_RDPS_GeopotentialHeight_IsbL-0225_RLatLon0.09_PT008H.grib2 2026-05-03 20:42 266K
20260503T18Z_MSC_RDPS_GeopotentialHeight_IsbL-0250_RLatLon0.09_PT008H.grib2 2026-05-03 20:42 267K
20260503T18Z_MSC_RDPS_GeopotentialHeight_IsbL-0275_RLatLon0.09_PT008H.grib2 2026-05-03 20:42 266K
20260503T18Z_MSC_RDPS_GeopotentialHeight_IsbL-0300_RLatLon0.09_PT008H.grib2 2026-05-03 20:42 236K
20260503T18Z_MSC_RDPS_GeopotentialHeight_IsbL-0350_RLatLon0.09_PT008H.grib2 2026-05-03 20:42 231K
20260503T18Z_MSC_RDPS_GeopotentialHeight_IsbL-0400_RLatLon0.09_PT008H.grib2 2026-05-03 20:42 228K
20260503T18Z_MSC_RDPS_GeopotentialHeight_IsbL-0450_RLatLon0.09_PT008H.grib2 2026-05-03 20:42 298K
20260503T18Z_MSC_RDPS_GeopotentialHeight_IsbL-0500_RLatLon0.09_PT008H.grib2 2026-05-03 20:42 294K
20260503T18Z_MSC_RDPS_GeopotentialHeight_IsbL-0550_RLatLon0.09_PT008H.grib2 2026-05-03 20:42 291K
20260503T18Z_MSC_RDPS_GeopotentialHeight_IsbL-0600_RLatLon0.09_PT008H.grib2 2026-05-03 20:42 288K
20260503T18Z_MSC_RDPS_GeopotentialHeight_IsbL-0650_RLatLon0.09_PT008H.grib2 2026-05-03 20:42 257K
20260503T18Z_MSC_RDPS_GeopotentialHeight_IsbL-0700_RLatLon0.09_PT008H.grib2 2026-05-03 20:42 256K
20260503T18Z_MSC_RDPS_GeopotentialHeight_IsbL-0750_RLatLon0.09_PT008H.grib2 2026-05-03 20:42 340K
20260503T18Z_MSC_RDPS_GeopotentialHeight_IsbL-0800_RLatLon0.09_PT008H.grib2 2026-05-03 20:42 346K
20260503T18Z_MSC_RDPS_GeopotentialHeight_IsbL-0850_RLatLon0.09_PT008H.grib2 2026-05-03 20:42 354K
20260503T18Z_MSC_RDPS_GeopotentialHeight_IsbL-0875_RLatLon0.09_PT008H.grib2 2026-05-03 20:42 354K
20260503T18Z_MSC_RDPS_GeopotentialHeight_IsbL-0900_RLatLon0.09_PT008H.grib2 2026-05-03 20:42 358K
20260503T18Z_MSC_RDPS_GeopotentialHeight_IsbL-0925_RLatLon0.09_PT008H.grib2 2026-05-03 20:42 360K
20260503T18Z_MSC_RDPS_GeopotentialHeight_IsbL-0950_RLatLon0.09_PT008H.grib2 2026-05-03 20:42 279K
20260503T18Z_MSC_RDPS_GeopotentialHeight_IsbL-0970_RLatLon0.09_PT008H.grib2 2026-05-03 20:42 283K
20260503T18Z_MSC_RDPS_GeopotentialHeight_IsbL-0985_RLatLon0.09_PT008H.grib2 2026-05-03 20:42 289K
20260503T18Z_MSC_RDPS_GeopotentialHeight_IsbL-1000_RLatLon0.09_PT008H.grib2 2026-05-03 20:42 296K
20260503T18Z_MSC_RDPS_GeopotentialHeight_IsbL-1015_RLatLon0.09_PT008H.grib2 2026-05-03 20:42 307K
20260503T18Z_MSC_RDPS_Humidex_Sfc_RLatLon0.09_PT008H.grib2 2026-05-03 20:42 2.4M
20260503T18Z_MSC_RDPS_IcePellets-Accum1h_Sfc_RLatLon0.09_PT008H.grib2 2026-05-03 20:42 1.2K
20260503T18Z_MSC_RDPS_IcePellets-Accum_Sfc_RLatLon0.09_PT008H.grib2 2026-05-03 20:42 3.1K
20260503T18Z_MSC_RDPS_KIndex_Sfc_RLatLon0.09_PT008H.grib2 2026-05-03 20:42 2.5M
20260503T18Z_MSC_RDPS_LatentHeatNetFlux_Sfc_RLatLon0.09_PT008H.grib2 2026-05-03 20:42 326K
20260503T18Z_MSC_RDPS_LiftedIndex-MU-VT_IsbL-0500_RLatLon0.09_PT008H.grib2 2026-05-03 20:42 2.4M
20260503T18Z_MSC_RDPS_NetLongwaveRadiationFlux-Accum_Sfc_RLatLon0.09_PT008H.grib2 2026-05-03 20:42 562K
20260503T18Z_MSC_RDPS_NetShortwaveRadiationFlux-Accum_Sfc_RLatLon0.09_PT008H.grib2 2026-05-03 20:42 478K
20260503T18Z_MSC_RDPS_PlanetaryBoundaryLayerHeight_Sfc_RLatLon0.09_PT008H.grib2 2026-05-03 20:42 1.1M
20260503T18Z_MSC_RDPS_Precip-Accum1h_Sfc_RLatLon0.09_PT008H.grib2 2026-05-03 20:42 1.2M
20260503T18Z_MSC_RDPS_Precip-Accum_Sfc_RLatLon0.09_PT008H.grib2 2026-05-03 20:42 1.6M
20260503T18Z_MSC_RDPS_PrecipRate_Sfc_RLatLon0.09_PT008H.grib2 2026-05-03 20:42 180K
20260503T18Z_MSC_RDPS_PrecipType-Instant_Sfc_RLatLon0.09_PT008H.grib2 2026-05-03 20:42 574K
20260503T18Z_MSC_RDPS_Pressure-Trend3h_Sfc_RLatLon0.09_PT008H.grib2 2026-05-03 20:42 1.1M
20260503T18Z_MSC_RDPS_Pressure_MSL_RLatLon0.09_PT008H.grib2 2026-05-03 20:42 324K
20260503T18Z_MSC_RDPS_Pressure_PVU-1.5_RLatLon0.09_PT008H.grib2 2026-05-03 20:42 2.3M
20260503T18Z_MSC_RDPS_Pressure_PVU-1_RLatLon0.09_PT008H.grib2 2026-05-03 20:42 2.4M
20260503T18Z_MSC_RDPS_Pressure_PVU-2_RLatLon0.09_PT008H.grib2 2026-05-03 20:42 2.4M
20260503T18Z_MSC_RDPS_Pressure_Sfc_RLatLon0.09_PT008H.grib2 2026-05-03 20:42 498K
20260503T18Z_MSC_RDPS_RadiativeTemp_Sfc_RLatLon0.09_PT008H.grib2 2026-05-03 20:42 303K
20260503T18Z_MSC_RDPS_Rain-Accum1h_Sfc_RLatLon0.09_PT008H.grib2 2026-05-03 20:42 600K
20260503T18Z_MSC_RDPS_Rain-Accum_Sfc_RLatLon0.09_PT008H.grib2 2026-05-03 20:42 1.2M
20260503T18Z_MSC_RDPS_RelativeHumidity_AGL-2m_RLatLon0.09_PT008H.grib2 2026-05-03 20:42 1.0M
20260503T18Z_MSC_RDPS_RelativeHumidity_IsbL-0010_RLatLon0.09_PT008H.grib2 2026-05-03 20:42 617K
20260503T18Z_MSC_RDPS_RelativeHumidity_IsbL-0020_RLatLon0.09_PT008H.grib2 2026-05-03 20:42 672K
20260503T18Z_MSC_RDPS_RelativeHumidity_IsbL-0030_RLatLon0.09_PT008H.grib2 2026-05-03 20:42 600K
20260503T18Z_MSC_RDPS_RelativeHumidity_IsbL-0050_RLatLon0.09_PT008H.grib2 2026-05-03 20:42 304K
20260503T18Z_MSC_RDPS_RelativeHumidity_IsbL-0100_RLatLon0.09_PT008H.grib2 2026-05-03 20:42 279K
20260503T18Z_MSC_RDPS_RelativeHumidity_IsbL-0150_RLatLon0.09_PT008H.grib2 2026-05-03 20:42 418K
20260503T18Z_MSC_RDPS_RelativeHumidity_IsbL-0175_RLatLon0.09_PT008H.grib2 2026-05-03 20:42 478K
20260503T18Z_MSC_RDPS_RelativeHumidity_IsbL-0200_RLatLon0.09_PT008H.grib2 2026-05-03 20:42 557K
20260503T18Z_MSC_RDPS_RelativeHumidity_IsbL-0225_RLatLon0.09_PT008H.grib2 2026-05-03 20:42 629K
20260503T18Z_MSC_RDPS_RelativeHumidity_IsbL-0250_RLatLon0.09_PT008H.grib2 2026-05-03 20:42 698K
20260503T18Z_MSC_RDPS_RelativeHumidity_IsbL-0275_RLatLon0.09_PT008H.grib2 2026-05-03 20:42 719K
20260503T18Z_MSC_RDPS_RelativeHumidity_IsbL-0300_RLatLon0.09_PT008H.grib2 2026-05-03 20:42 751K
20260503T18Z_MSC_RDPS_RelativeHumidity_IsbL-0350_RLatLon0.09_PT008H.grib2 2026-05-03 20:42 776K
20260503T18Z_MSC_RDPS_RelativeHumidity_IsbL-0400_RLatLon0.09_PT008H.grib2 2026-05-03 20:42 789K
20260503T18Z_MSC_RDPS_RelativeHumidity_IsbL-0450_RLatLon0.09_PT008H.grib2 2026-05-03 20:42 790K
20260503T18Z_MSC_RDPS_RelativeHumidity_IsbL-0500_RLatLon0.09_PT008H.grib2 2026-05-03 20:42 806K
20260503T18Z_MSC_RDPS_RelativeHumidity_IsbL-0550_RLatLon0.09_PT008H.grib2 2026-05-03 20:42 823K
20260503T18Z_MSC_RDPS_RelativeHumidity_IsbL-0600_RLatLon0.09_PT008H.grib2 2026-05-03 20:42 843K
20260503T18Z_MSC_RDPS_RelativeHumidity_IsbL-0650_RLatLon0.09_PT008H.grib2 2026-05-03 20:42 855K
20260503T18Z_MSC_RDPS_RelativeHumidity_IsbL-0700_RLatLon0.09_PT008H.grib2 2026-05-03 20:42 877K
20260503T18Z_MSC_RDPS_RelativeHumidity_IsbL-0750_RLatLon0.09_PT008H.grib2 2026-05-03 20:42 917K
20260503T18Z_MSC_RDPS_RelativeHumidity_IsbL-0800_RLatLon0.09_PT008H.grib2 2026-05-03 20:42 1.0M
20260503T18Z_MSC_RDPS_RelativeHumidity_IsbL-0850_RLatLon0.09_PT008H.grib2 2026-05-03 20:42 1.0M
20260503T18Z_MSC_RDPS_RelativeHumidity_IsbL-0875_RLatLon0.09_PT008H.grib2 2026-05-03 20:42 1.0M
20260503T18Z_MSC_RDPS_RelativeHumidity_IsbL-0900_RLatLon0.09_PT008H.grib2 2026-05-03 20:42 1.1M
20260503T18Z_MSC_RDPS_RelativeHumidity_IsbL-0925_RLatLon0.09_PT008H.grib2 2026-05-03 20:42 1.0M
20260503T18Z_MSC_RDPS_RelativeHumidity_IsbL-0950_RLatLon0.09_PT008H.grib2 2026-05-03 20:42 1.0M
20260503T18Z_MSC_RDPS_RelativeHumidity_IsbL-0970_RLatLon0.09_PT008H.grib2 2026-05-03 20:42 1.0M
20260503T18Z_MSC_RDPS_RelativeHumidity_IsbL-0985_RLatLon0.09_PT008H.grib2 2026-05-03 20:42 1.0M
20260503T18Z_MSC_RDPS_RelativeHumidity_IsbL-1000_RLatLon0.09_PT008H.grib2 2026-05-03 20:42 1.0M
20260503T18Z_MSC_RDPS_RelativeHumidity_IsbL-1015_RLatLon0.09_PT008H.grib2 2026-05-03 20:42 1.0M
20260503T18Z_MSC_RDPS_Runoff-Accum_Sfc_RLatLon0.09_PT008H.grib2 2026-05-03 20:42 67K
20260503T18Z_MSC_RDPS_SWEATIndex_Sfc_RLatLon0.09_PT008H.grib2 2026-05-03 20:42 2.4M
20260503T18Z_MSC_RDPS_SeeingIndex_EAtm_RLatLon0.09_PT008H.grib2 2026-05-03 20:42 1.0M
20260503T18Z_MSC_RDPS_SensibleHeatNetFlux_Sfc_RLatLon0.09_PT008H.grib2 2026-05-03 20:42 291K
20260503T18Z_MSC_RDPS_ShowalterIndex_IsbL-0500_RLatLon0.09_PT008H.grib2 2026-05-03 20:42 2.6M
20260503T18Z_MSC_RDPS_SkyTransparencyIndex_EAtm_RLatLon0.09_PT008H.grib2 2026-05-03 20:42 714K
20260503T18Z_MSC_RDPS_Snow-Accum1h_Sfc_RLatLon0.09_PT008H.grib2 2026-05-03 20:42 491K
20260503T18Z_MSC_RDPS_Snow-Accum_Sfc_RLatLon0.09_PT008H.grib2 2026-05-03 20:42 627K
20260503T18Z_MSC_RDPS_SnowDensity_Sfc_RLatLon0.09_PT008H.grib2 2026-05-03 20:42 163K
20260503T18Z_MSC_RDPS_SnowDepth_Sfc_RLatLon0.09_PT008H.grib2 2026-05-03 20:42 641K
20260503T18Z_MSC_RDPS_SoilTemp_DBS-0to10cm_RLatLon0.09_PT008H.grib2 2026-05-03 20:42 214K
20260503T18Z_MSC_RDPS_SoilTemp_Sfc_RLatLon0.09_PT008H.grib2 2026-05-03 20:42 280K
20260503T18Z_MSC_RDPS_SoilVolumetricIceContent_Sfc_RLatLon0.09_PT008H.grib2 2026-05-03 20:42 156K
20260503T18Z_MSC_RDPS_SoilVolumetricWaterContent_DBS-0to10cm_RLatLon0.09_PT008H.grib2 2026-05-03 20:42 274K
20260503T18Z_MSC_RDPS_SoilVolumetricWaterContent_DBS-0to1cm_RLatLon0.09_PT008H.grib2 2026-05-03 20:42 334K
20260503T18Z_MSC_RDPS_SpecificHumidity_AGL-120m_RLatLon0.09_PT008H.grib2 2026-05-03 20:42 478K
20260503T18Z_MSC_RDPS_SpecificHumidity_AGL-2m_RLatLon0.09_PT008H.grib2 2026-05-03 20:42 648K
20260503T18Z_MSC_RDPS_SpecificHumidity_AGL-40m_RLatLon0.09_PT008H.grib2 2026-05-03 20:42 485K
20260503T18Z_MSC_RDPS_SpecificHumidity_AGL-80m_RLatLon0.09_PT008H.grib2 2026-05-03 20:42 480K
20260503T18Z_MSC_RDPS_SpecificHumidity_IsbL-0001_RLatLon0.09_PT008H.grib2 2026-05-03 20:42 395K
20260503T18Z_MSC_RDPS_SpecificHumidity_IsbL-0005_RLatLon0.09_PT008H.grib2 2026-05-03 20:42 364K
20260503T18Z_MSC_RDPS_SpecificHumidity_IsbL-0010_RLatLon0.09_PT008H.grib2 2026-05-03 20:42 398K
20260503T18Z_MSC_RDPS_SpecificHumidity_IsbL-0020_RLatLon0.09_PT008H.grib2 2026-05-03 20:42 380K
20260503T18Z_MSC_RDPS_SpecificHumidity_IsbL-0030_RLatLon0.09_PT008H.grib2 2026-05-03 20:42 374K
20260503T18Z_MSC_RDPS_SpecificHumidity_IsbL-0050_RLatLon0.09_PT008H.grib2 2026-05-03 20:42 376K
20260503T18Z_MSC_RDPS_SpecificHumidity_IsbL-0100_RLatLon0.09_PT008H.grib2 2026-05-03 20:42 426K
20260503T18Z_MSC_RDPS_SpecificHumidity_IsbL-0150_RLatLon0.09_PT008H.grib2 2026-05-03 20:42 457K
20260503T18Z_MSC_RDPS_SpecificHumidity_IsbL-0175_RLatLon0.09_PT008H.grib2 2026-05-03 20:42 444K
20260503T18Z_MSC_RDPS_SpecificHumidity_IsbL-0200_RLatLon0.09_PT008H.grib2 2026-05-03 20:42 466K
20260503T18Z_MSC_RDPS_SpecificHumidity_IsbL-0225_RLatLon0.09_PT008H.grib2 2026-05-03 20:42 471K
20260503T18Z_MSC_RDPS_SpecificHumidity_IsbL-0250_RLatLon0.09_PT008H.grib2 2026-05-03 20:42 578K
20260503T18Z_MSC_RDPS_SpecificHumidity_IsbL-0275_RLatLon0.09_PT008H.grib2 2026-05-03 20:42 491K
20260503T18Z_MSC_RDPS_SpecificHumidity_IsbL-0300_RLatLon0.09_PT008H.grib2 2026-05-03 20:42 458K
20260503T18Z_MSC_RDPS_SpecificHumidity_IsbL-0350_RLatLon0.09_PT008H.grib2 2026-05-03 20:42 577K
20260503T18Z_MSC_RDPS_SpecificHumidity_IsbL-0400_RLatLon0.09_PT008H.grib2 2026-05-03 20:42 531K
20260503T18Z_MSC_RDPS_SpecificHumidity_IsbL-0450_RLatLon0.09_PT008H.grib2 2026-05-03 20:42 576K
20260503T18Z_MSC_RDPS_SpecificHumidity_IsbL-0500_RLatLon0.09_PT008H.grib2 2026-05-03 20:42 511K
20260503T18Z_MSC_RDPS_SpecificHumidity_IsbL-0550_RLatLon0.09_PT008H.grib2 2026-05-03 20:42 582K
20260503T18Z_MSC_RDPS_SpecificHumidity_IsbL-0600_RLatLon0.09_PT008H.grib2 2026-05-03 20:42 630K
20260503T18Z_MSC_RDPS_SpecificHumidity_IsbL-0650_RLatLon0.09_PT008H.grib2 2026-05-03 20:42 549K
20260503T18Z_MSC_RDPS_SpecificHumidity_IsbL-0700_RLatLon0.09_PT008H.grib2 2026-05-03 20:42 591K
20260503T18Z_MSC_RDPS_SpecificHumidity_IsbL-0750_RLatLon0.09_PT008H.grib2 2026-05-03 20:42 644K
20260503T18Z_MSC_RDPS_SpecificHumidity_IsbL-0800_RLatLon0.09_PT008H.grib2 2026-05-03 20:42 727K
20260503T18Z_MSC_RDPS_SpecificHumidity_IsbL-0850_RLatLon0.09_PT008H.grib2 2026-05-03 20:42 804K
20260503T18Z_MSC_RDPS_SpecificHumidity_IsbL-0875_RLatLon0.09_PT008H.grib2 2026-05-03 20:42 828K
20260503T18Z_MSC_RDPS_SpecificHumidity_IsbL-0900_RLatLon0.09_PT008H.grib2 2026-05-03 20:42 837K
20260503T18Z_MSC_RDPS_SpecificHumidity_IsbL-0925_RLatLon0.09_PT008H.grib2 2026-05-03 20:42 838K
20260503T18Z_MSC_RDPS_SpecificHumidity_IsbL-0950_RLatLon0.09_PT008H.grib2 2026-05-03 20:42 838K
20260503T18Z_MSC_RDPS_SpecificHumidity_IsbL-0970_RLatLon0.09_PT008H.grib2 2026-05-03 20:42 688K
20260503T18Z_MSC_RDPS_SpecificHumidity_IsbL-0985_RLatLon0.09_PT008H.grib2 2026-05-03 20:42 678K
20260503T18Z_MSC_RDPS_SpecificHumidity_IsbL-1000_RLatLon0.09_PT008H.grib2 2026-05-03 20:42 672K
20260503T18Z_MSC_RDPS_SpecificHumidity_IsbL-1015_RLatLon0.09_PT008H.grib2 2026-05-03 20:42 662K
20260503T18Z_MSC_RDPS_SpecificHumidity_Sfc_RLatLon0.09_PT008H.grib2 2026-05-03 20:42 306K
20260503T18Z_MSC_RDPS_StormRelativeHelicity_EtaL-10000_RLatLon0.09_PT008H.grib2 2026-05-03 20:42 1.1M
20260503T18Z_MSC_RDPS_StormSeverityIndex_EtaL-10000_RLatLon0.09_PT008H.grib2 2026-05-03 20:42 1.1M
20260503T18Z_MSC_RDPS_Thickness_IsbL-0850to0700_RLatLon0.09_PT008H.grib2 2026-05-03 20:42 175K
20260503T18Z_MSC_RDPS_Thickness_IsbL-1000to0500_RLatLon0.09_PT008H.grib2 2026-05-03 20:42 194K
20260503T18Z_MSC_RDPS_Thickness_IsbL-1000to0850_RLatLon0.09_PT008H.grib2 2026-05-03 20:42 182K
20260503T18Z_MSC_RDPS_TotalCloudCover_Sfc_RLatLon0.09_PT008H.grib2 2026-05-03 20:42 657K
20260503T18Z_MSC_RDPS_TotalTotalsIndex_Sfc_RLatLon0.09_PT008H.grib2 2026-05-03 20:42 2.4M
20260503T18Z_MSC_RDPS_UVIndex-ClearSky_Sfc_RLatLon0.09_PT008H.grib2 2026-05-03 20:42 120K
20260503T18Z_MSC_RDPS_UVIndex_Sfc_RLatLon0.09_PT008H.grib2 2026-05-03 20:42 251K
20260503T18Z_MSC_RDPS_UpwardLongwaveRadiationFlux_NTAtm_RLatLon0.09_PT008H.grib2 2026-05-03 20:42 494K
20260503T18Z_MSC_RDPS_UpwardShortwaveRadiationFlux_NTAtm_RLatLon0.09_PT008H.grib2 2026-05-03 20:42 238K
20260503T18Z_MSC_RDPS_VerticalVelocity_IsbL-0250_RLatLon0.09_PT008H.grib2 2026-05-03 20:42 436K
20260503T18Z_MSC_RDPS_VerticalVelocity_IsbL-0500_RLatLon0.09_PT008H.grib2 2026-05-03 20:42 679K
20260503T18Z_MSC_RDPS_VerticalVelocity_IsbL-0700_RLatLon0.09_PT008H.grib2 2026-05-03 20:42 597K
20260503T18Z_MSC_RDPS_VerticalVelocity_IsbL-0850_RLatLon0.09_PT008H.grib2 2026-05-03 20:42 699K
20260503T18Z_MSC_RDPS_VerticalWindShear_EtaL-6500_RLatLon0.09_PT008H.grib2 2026-05-03 20:42 1.2M
20260503T18Z_MSC_RDPS_WindChill_Sfc_RLatLon0.09_PT008H.grib2 2026-05-03 20:42 1.1M
20260503T18Z_MSC_RDPS_WindDir_AGL-10m_RLatLon0.09_PT008H.grib2 2026-05-03 20:42 953K
20260503T18Z_MSC_RDPS_WindDir_AGL-120m_RLatLon0.09_PT008H.grib2 2026-05-03 20:42 594K
20260503T18Z_MSC_RDPS_WindDir_AGL-40m_RLatLon0.09_PT008H.grib2 2026-05-03 20:42 622K
20260503T18Z_MSC_RDPS_WindDir_AGL-80m_RLatLon0.09_PT008H.grib2 2026-05-03 20:42 605K
20260503T18Z_MSC_RDPS_WindDir_IsbL-0001_RLatLon0.09_PT008H.grib2 2026-05-03 20:42 299K
20260503T18Z_MSC_RDPS_WindDir_IsbL-0005_RLatLon0.09_PT008H.grib2 2026-05-03 20:42 362K
20260503T18Z_MSC_RDPS_WindDir_IsbL-0010_RLatLon0.09_PT008H.grib2 2026-05-03 20:42 383K
20260503T18Z_MSC_RDPS_WindDir_IsbL-0020_RLatLon0.09_PT008H.grib2 2026-05-03 20:42 415K
20260503T18Z_MSC_RDPS_WindDir_IsbL-0030_RLatLon0.09_PT008H.grib2 2026-05-03 20:42 403K
20260503T18Z_MSC_RDPS_WindDir_IsbL-0050_RLatLon0.09_PT008H.grib2 2026-05-03 20:42 400K
20260503T18Z_MSC_RDPS_WindDir_IsbL-0100_RLatLon0.09_PT008H.grib2 2026-05-03 20:42 402K
20260503T18Z_MSC_RDPS_WindDir_IsbL-0150_RLatLon0.09_PT008H.grib2 2026-05-03 20:42 415K
20260503T18Z_MSC_RDPS_WindDir_IsbL-0175_RLatLon0.09_PT008H.grib2 2026-05-03 20:42 435K
20260503T18Z_MSC_RDPS_WindDir_IsbL-0200_RLatLon0.09_PT008H.grib2 2026-05-03 20:42 451K
20260503T18Z_MSC_RDPS_WindDir_IsbL-0225_RLatLon0.09_PT008H.grib2 2026-05-03 20:42 459K
20260503T18Z_MSC_RDPS_WindDir_IsbL-0250_RLatLon0.09_PT008H.grib2 2026-05-03 20:42 461K
20260503T18Z_MSC_RDPS_WindDir_IsbL-0275_RLatLon0.09_PT008H.grib2 2026-05-03 20:42 477K
20260503T18Z_MSC_RDPS_WindDir_IsbL-0300_RLatLon0.09_PT008H.grib2 2026-05-03 20:42 473K
20260503T18Z_MSC_RDPS_WindDir_IsbL-0350_RLatLon0.09_PT008H.grib2 2026-05-03 20:42 493K
20260503T18Z_MSC_RDPS_WindDir_IsbL-0400_RLatLon0.09_PT008H.grib2 2026-05-03 20:42 523K
20260503T18Z_MSC_RDPS_WindDir_IsbL-0450_RLatLon0.09_PT008H.grib2 2026-05-03 20:42 529K
20260503T18Z_MSC_RDPS_WindDir_IsbL-0500_RLatLon0.09_PT008H.grib2 2026-05-03 20:42 535K
20260503T18Z_MSC_RDPS_WindDir_IsbL-0550_RLatLon0.09_PT008H.grib2 2026-05-03 20:42 549K
20260503T18Z_MSC_RDPS_WindDir_IsbL-0600_RLatLon0.09_PT008H.grib2 2026-05-03 20:42 577K
20260503T18Z_MSC_RDPS_WindDir_IsbL-0650_RLatLon0.09_PT008H.grib2 2026-05-03 20:42 612K
20260503T18Z_MSC_RDPS_WindDir_IsbL-0700_RLatLon0.09_PT008H.grib2 2026-05-03 20:42 654K
20260503T18Z_MSC_RDPS_WindDir_IsbL-0750_RLatLon0.09_PT008H.grib2 2026-05-03 20:42 698K
20260503T18Z_MSC_RDPS_WindDir_IsbL-0800_RLatLon0.09_PT008H.grib2 2026-05-03 20:42 765K
20260503T18Z_MSC_RDPS_WindDir_IsbL-0850_RLatLon0.09_PT008H.grib2 2026-05-03 20:42 851K
20260503T18Z_MSC_RDPS_WindDir_IsbL-0875_RLatLon0.09_PT008H.grib2 2026-05-03 20:42 879K
20260503T18Z_MSC_RDPS_WindDir_IsbL-0900_RLatLon0.09_PT008H.grib2 2026-05-03 20:42 893K
20260503T18Z_MSC_RDPS_WindDir_IsbL-0925_RLatLon0.09_PT008H.grib2 2026-05-03 20:42 901K
20260503T18Z_MSC_RDPS_WindDir_IsbL-0950_RLatLon0.09_PT008H.grib2 2026-05-03 20:42 901K
20260503T18Z_MSC_RDPS_WindDir_IsbL-0970_RLatLon0.09_PT008H.grib2 2026-05-03 20:42 906K
20260503T18Z_MSC_RDPS_WindDir_IsbL-0985_RLatLon0.09_PT008H.grib2 2026-05-03 20:42 915K
20260503T18Z_MSC_RDPS_WindDir_IsbL-1000_RLatLon0.09_PT008H.grib2 2026-05-03 20:42 930K
20260503T18Z_MSC_RDPS_WindDir_IsbL-1015_RLatLon0.09_PT008H.grib2 2026-05-03 20:42 944K
20260503T18Z_MSC_RDPS_WindGust-Max_AGL-10m_RLatLon0.09_PT008H.grib2 2026-05-03 20:42 954K
20260503T18Z_MSC_RDPS_WindGust-Min_AGL-10m_RLatLon0.09_PT008H.grib2 2026-05-03 20:42 964K
20260503T18Z_MSC_RDPS_WindGust_AGL-10m_RLatLon0.09_PT008H.grib2 2026-05-03 20:42 1.0M
20260503T18Z_MSC_RDPS_WindSpeed_AGL-10m_RLatLon0.09_PT008H.grib2 2026-05-03 20:42 828K
20260503T18Z_MSC_RDPS_WindSpeed_AGL-120m_RLatLon0.09_PT008H.grib2 2026-05-03 20:42 541K
20260503T18Z_MSC_RDPS_WindSpeed_AGL-40m_RLatLon0.09_PT008H.grib2 2026-05-03 20:42 534K
20260503T18Z_MSC_RDPS_WindSpeed_AGL-80m_RLatLon0.09_PT008H.grib2 2026-05-03 20:42 531K
20260503T18Z_MSC_RDPS_WindSpeed_IsbL-0001_RLatLon0.09_PT008H.grib2 2026-05-03 20:42 249K
20260503T18Z_MSC_RDPS_WindSpeed_IsbL-0005_RLatLon0.09_PT008H.grib2 2026-05-03 20:42 333K
20260503T18Z_MSC_RDPS_WindSpeed_IsbL-0010_RLatLon0.09_PT008H.grib2 2026-05-03 20:42 351K
20260503T18Z_MSC_RDPS_WindSpeed_IsbL-0020_RLatLon0.09_PT008H.grib2 2026-05-03 20:42 309K
20260503T18Z_MSC_RDPS_WindSpeed_IsbL-0030_RLatLon0.09_PT008H.grib2 2026-05-03 20:42 314K
20260503T18Z_MSC_RDPS_WindSpeed_IsbL-0050_RLatLon0.09_PT008H.grib2 2026-05-03 20:42 345K
20260503T18Z_MSC_RDPS_WindSpeed_IsbL-0100_RLatLon0.09_PT008H.grib2 2026-05-03 20:42 474K
20260503T18Z_MSC_RDPS_WindSpeed_IsbL-0150_RLatLon0.09_PT008H.grib2 2026-05-03 20:42 386K
20260503T18Z_MSC_RDPS_WindSpeed_IsbL-0175_RLatLon0.09_PT008H.grib2 2026-05-03 20:42 432K
20260503T18Z_MSC_RDPS_WindSpeed_IsbL-0200_RLatLon0.09_PT008H.grib2 2026-05-03 20:42 446K
20260503T18Z_MSC_RDPS_WindSpeed_IsbL-0225_RLatLon0.09_PT008H.grib2 2026-05-03 20:42 455K
20260503T18Z_MSC_RDPS_WindSpeed_IsbL-0250_RLatLon0.09_PT008H.grib2 2026-05-03 20:42 458K
20260503T18Z_MSC_RDPS_WindSpeed_IsbL-0275_RLatLon0.09_PT008H.grib2 2026-05-03 20:42 474K
20260503T18Z_MSC_RDPS_WindSpeed_IsbL-0300_RLatLon0.09_PT008H.grib2 2026-05-03 20:42 469K
20260503T18Z_MSC_RDPS_WindSpeed_IsbL-0350_RLatLon0.09_PT008H.grib2 2026-05-03 20:42 479K
20260503T18Z_MSC_RDPS_WindSpeed_IsbL-0400_RLatLon0.09_PT008H.grib2 2026-05-03 20:42 466K
20260503T18Z_MSC_RDPS_WindSpeed_IsbL-0450_RLatLon0.09_PT008H.grib2 2026-05-03 20:42 468K
20260503T18Z_MSC_RDPS_WindSpeed_IsbL-0500_RLatLon0.09_PT008H.grib2 2026-05-03 20:42 468K
20260503T18Z_MSC_RDPS_WindSpeed_IsbL-0550_RLatLon0.09_PT008H.grib2 2026-05-03 20:42 469K
20260503T18Z_MSC_RDPS_WindSpeed_IsbL-0600_RLatLon0.09_PT008H.grib2 2026-05-03 20:42 595K
20260503T18Z_MSC_RDPS_WindSpeed_IsbL-0650_RLatLon0.09_PT008H.grib2 2026-05-03 20:42 613K
20260503T18Z_MSC_RDPS_WindSpeed_IsbL-0700_RLatLon0.09_PT008H.grib2 2026-05-03 20:42 679K
20260503T18Z_MSC_RDPS_WindSpeed_IsbL-0750_RLatLon0.09_PT008H.grib2 2026-05-03 20:42 711K
20260503T18Z_MSC_RDPS_WindSpeed_IsbL-0800_RLatLon0.09_PT008H.grib2 2026-05-03 20:42 758K
20260503T18Z_MSC_RDPS_WindSpeed_IsbL-0850_RLatLon0.09_PT008H.grib2 2026-05-03 20:42 770K
20260503T18Z_MSC_RDPS_WindSpeed_IsbL-0875_RLatLon0.09_PT008H.grib2 2026-05-03 20:42 791K
20260503T18Z_MSC_RDPS_WindSpeed_IsbL-0900_RLatLon0.09_PT008H.grib2 2026-05-03 20:42 847K
20260503T18Z_MSC_RDPS_WindSpeed_IsbL-0925_RLatLon0.09_PT008H.grib2 2026-05-03 20:42 858K
20260503T18Z_MSC_RDPS_WindSpeed_IsbL-0950_RLatLon0.09_PT008H.grib2 2026-05-03 20:42 860K
20260503T18Z_MSC_RDPS_WindSpeed_IsbL-0970_RLatLon0.09_PT008H.grib2 2026-05-03 20:42 858K
20260503T18Z_MSC_RDPS_WindSpeed_IsbL-0985_RLatLon0.09_PT008H.grib2 2026-05-03 20:42 848K
20260503T18Z_MSC_RDPS_WindSpeed_IsbL-1000_RLatLon0.09_PT008H.grib2 2026-05-03 20:42 840K
20260503T18Z_MSC_RDPS_WindSpeed_IsbL-1015_RLatLon0.09_PT008H.grib2 2026-05-03 20:42 829K
20260503T18Z_MSC_RDPS_WindU_AGL-10m_RLatLon0.09_PT008H.grib2 2026-05-03 20:42 425K
20260503T18Z_MSC_RDPS_WindU_AGL-120m_RLatLon0.09_PT008H.grib2 2026-05-03 20:42 412K
20260503T18Z_MSC_RDPS_WindU_AGL-40m_RLatLon0.09_PT008H.grib2 2026-05-03 20:42 530K
20260503T18Z_MSC_RDPS_WindU_AGL-80m_RLatLon0.09_PT008H.grib2 2026-05-03 20:42 413K
20260503T18Z_MSC_RDPS_WindU_IsbL-0001_RLatLon0.09_PT008H.grib2 2026-05-03 20:42 240K
20260503T18Z_MSC_RDPS_WindU_IsbL-0005_RLatLon0.09_PT008H.grib2 2026-05-03 20:42 275K
20260503T18Z_MSC_RDPS_WindU_IsbL-0010_RLatLon0.09_PT008H.grib2 2026-05-03 20:42 287K
20260503T18Z_MSC_RDPS_WindU_IsbL-0020_RLatLon0.09_PT008H.grib2 2026-05-03 20:42 343K
20260503T18Z_MSC_RDPS_WindU_IsbL-0030_RLatLon0.09_PT008H.grib2 2026-05-03 20:42 346K
20260503T18Z_MSC_RDPS_WindU_IsbL-0050_RLatLon0.09_PT008H.grib2 2026-05-03 20:42 374K
20260503T18Z_MSC_RDPS_WindU_IsbL-0100_RLatLon0.09_PT008H.grib2 2026-05-03 20:42 429K
20260503T18Z_MSC_RDPS_WindU_IsbL-0150_RLatLon0.09_PT008H.grib2 2026-05-03 20:42 400K
20260503T18Z_MSC_RDPS_WindU_IsbL-0175_RLatLon0.09_PT008H.grib2 2026-05-03 20:42 327K
20260503T18Z_MSC_RDPS_WindU_IsbL-0200_RLatLon0.09_PT008H.grib2 2026-05-03 20:42 340K
20260503T18Z_MSC_RDPS_WindU_IsbL-0225_RLatLon0.09_PT008H.grib2 2026-05-03 20:42 346K
20260503T18Z_MSC_RDPS_WindU_IsbL-0250_RLatLon0.09_PT008H.grib2 2026-05-03 20:42 348K
20260503T18Z_MSC_RDPS_WindU_IsbL-0275_RLatLon0.09_PT008H.grib2 2026-05-03 20:42 361K
20260503T18Z_MSC_RDPS_WindU_IsbL-0300_RLatLon0.09_PT008H.grib2 2026-05-03 20:42 456K
20260503T18Z_MSC_RDPS_WindU_IsbL-0350_RLatLon0.09_PT008H.grib2 2026-05-03 20:42 466K
20260503T18Z_MSC_RDPS_WindU_IsbL-0400_RLatLon0.09_PT008H.grib2 2026-05-03 20:42 471K
20260503T18Z_MSC_RDPS_WindU_IsbL-0450_RLatLon0.09_PT008H.grib2 2026-05-03 20:42 472K
20260503T18Z_MSC_RDPS_WindU_IsbL-0500_RLatLon0.09_PT008H.grib2 2026-05-03 20:42 473K
20260503T18Z_MSC_RDPS_WindU_IsbL-0550_RLatLon0.09_PT008H.grib2 2026-05-03 20:42 458K
20260503T18Z_MSC_RDPS_WindU_IsbL-0600_RLatLon0.09_PT008H.grib2 2026-05-03 20:42 466K
20260503T18Z_MSC_RDPS_WindU_IsbL-0650_RLatLon0.09_PT008H.grib2 2026-05-03 20:42 484K
20260503T18Z_MSC_RDPS_WindU_IsbL-0700_RLatLon0.09_PT008H.grib2 2026-05-03 20:42 505K
20260503T18Z_MSC_RDPS_WindU_IsbL-0750_RLatLon0.09_PT008H.grib2 2026-05-03 20:42 546K
20260503T18Z_MSC_RDPS_WindU_IsbL-0800_RLatLon0.09_PT008H.grib2 2026-05-03 20:42 584K
20260503T18Z_MSC_RDPS_WindU_IsbL-0850_RLatLon0.09_PT008H.grib2 2026-05-03 20:42 632K
20260503T18Z_MSC_RDPS_WindU_IsbL-0875_RLatLon0.09_PT008H.grib2 2026-05-03 20:42 648K
20260503T18Z_MSC_RDPS_WindU_IsbL-0900_RLatLon0.09_PT008H.grib2 2026-05-03 20:42 654K
20260503T18Z_MSC_RDPS_WindU_IsbL-0925_RLatLon0.09_PT008H.grib2 2026-05-03 20:42 660K
20260503T18Z_MSC_RDPS_WindU_IsbL-0950_RLatLon0.09_PT008H.grib2 2026-05-03 20:42 651K
20260503T18Z_MSC_RDPS_WindU_IsbL-0970_RLatLon0.09_PT008H.grib2 2026-05-03 20:42 648K
20260503T18Z_MSC_RDPS_WindU_IsbL-0985_RLatLon0.09_PT008H.grib2 2026-05-03 20:42 644K
20260503T18Z_MSC_RDPS_WindU_IsbL-1000_RLatLon0.09_PT008H.grib2 2026-05-03 20:42 776K
20260503T18Z_MSC_RDPS_WindU_IsbL-1015_RLatLon0.09_PT008H.grib2 2026-05-03 20:42 768K
20260503T18Z_MSC_RDPS_WindV_AGL-10m_RLatLon0.09_PT008H.grib2 2026-05-03 20:42 426K
20260503T18Z_MSC_RDPS_WindV_AGL-120m_RLatLon0.09_PT008H.grib2 2026-05-03 20:42 412K
20260503T18Z_MSC_RDPS_WindV_AGL-40m_RLatLon0.09_PT008H.grib2 2026-05-03 20:42 415K
20260503T18Z_MSC_RDPS_WindV_AGL-80m_RLatLon0.09_PT008H.grib2 2026-05-03 20:42 414K
20260503T18Z_MSC_RDPS_WindV_IsbL-0001_RLatLon0.09_PT008H.grib2 2026-05-03 20:42 242K
20260503T18Z_MSC_RDPS_WindV_IsbL-0005_RLatLon0.09_PT008H.grib2 2026-05-03 20:42 278K
20260503T18Z_MSC_RDPS_WindV_IsbL-0010_RLatLon0.09_PT008H.grib2 2026-05-03 20:42 288K
20260503T18Z_MSC_RDPS_WindV_IsbL-0020_RLatLon0.09_PT008H.grib2 2026-05-03 20:42 304K
20260503T18Z_MSC_RDPS_WindV_IsbL-0030_RLatLon0.09_PT008H.grib2 2026-05-03 20:42 307K
20260503T18Z_MSC_RDPS_WindV_IsbL-0050_RLatLon0.09_PT008H.grib2 2026-05-03 20:42 336K
20260503T18Z_MSC_RDPS_WindV_IsbL-0100_RLatLon0.09_PT008H.grib2 2026-05-03 20:42 332K
20260503T18Z_MSC_RDPS_WindV_IsbL-0150_RLatLon0.09_PT008H.grib2 2026-05-03 20:42 400K
20260503T18Z_MSC_RDPS_WindV_IsbL-0175_RLatLon0.09_PT008H.grib2 2026-05-03 20:42 328K
20260503T18Z_MSC_RDPS_WindV_IsbL-0200_RLatLon0.09_PT008H.grib2 2026-05-03 20:42 366K
20260503T18Z_MSC_RDPS_WindV_IsbL-0225_RLatLon0.09_PT008H.grib2 2026-05-03 20:42 371K
20260503T18Z_MSC_RDPS_WindV_IsbL-0250_RLatLon0.09_PT008H.grib2 2026-05-03 20:42 373K
20260503T18Z_MSC_RDPS_WindV_IsbL-0275_RLatLon0.09_PT008H.grib2 2026-05-03 20:42 384K
20260503T18Z_MSC_RDPS_WindV_IsbL-0300_RLatLon0.09_PT008H.grib2 2026-05-03 20:42 379K
20260503T18Z_MSC_RDPS_WindV_IsbL-0350_RLatLon0.09_PT008H.grib2 2026-05-03 20:42 385K
20260503T18Z_MSC_RDPS_WindV_IsbL-0400_RLatLon0.09_PT008H.grib2 2026-05-03 20:42 365K
20260503T18Z_MSC_RDPS_WindV_IsbL-0450_RLatLon0.09_PT008H.grib2 2026-05-03 20:42 368K
20260503T18Z_MSC_RDPS_WindV_IsbL-0500_RLatLon0.09_PT008H.grib2 2026-05-03 20:42 369K
20260503T18Z_MSC_RDPS_WindV_IsbL-0550_RLatLon0.09_PT008H.grib2 2026-05-03 20:42 475K
20260503T18Z_MSC_RDPS_WindV_IsbL-0600_RLatLon0.09_PT008H.grib2 2026-05-03 20:42 481K
20260503T18Z_MSC_RDPS_WindV_IsbL-0650_RLatLon0.09_PT008H.grib2 2026-05-03 20:42 497K
20260503T18Z_MSC_RDPS_WindV_IsbL-0700_RLatLon0.09_PT008H.grib2 2026-05-03 20:42 518K
20260503T18Z_MSC_RDPS_WindV_IsbL-0750_RLatLon0.09_PT008H.grib2 2026-05-03 20:42 543K
20260503T18Z_MSC_RDPS_WindV_IsbL-0800_RLatLon0.09_PT008H.grib2 2026-05-03 20:42 581K
20260503T18Z_MSC_RDPS_WindV_IsbL-0850_RLatLon0.09_PT008H.grib2 2026-05-03 20:42 629K
20260503T18Z_MSC_RDPS_WindV_IsbL-0875_RLatLon0.09_PT008H.grib2 2026-05-03 20:42 646K
20260503T18Z_MSC_RDPS_WindV_IsbL-0900_RLatLon0.09_PT008H.grib2 2026-05-03 20:42 653K
20260503T18Z_MSC_RDPS_WindV_IsbL-0925_RLatLon0.09_PT008H.grib2 2026-05-03 20:42 660K
20260503T18Z_MSC_RDPS_WindV_IsbL-0950_RLatLon0.09_PT008H.grib2 2026-05-03 20:42 653K
20260503T18Z_MSC_RDPS_WindV_IsbL-0970_RLatLon0.09_PT008H.grib2 2026-05-03 20:42 650K
20260503T18Z_MSC_RDPS_WindV_IsbL-0985_RLatLon0.09_PT008H.grib2 2026-05-03 20:42 645K
20260503T18Z_MSC_RDPS_WindV_IsbL-1000_RLatLon0.09_PT008H.grib2 2026-05-03 20:42 640K
20260503T18Z_MSC_RDPS_WindV_IsbL-1015_RLatLon0.09_PT008H.grib2 2026-05-03 20:42 769K